EUTELSAT 16A

Last updated on Tue Sep 16 2025 00:02:47 GMT+0000 (Coordinated Universal Time)

1 37836U 11057A 25258.58778264 .00000087 00000+0 00000+0 0 9993 2 37836 0.0653 6.7454 0005414 167.4618 48.1959 1.00273804 4573
UTC large
Height (km)
Speed (km/s)
/
Latitude / Longitude
Inclination (degrees)
Orbital Period (minutes)
Azimuth
Elevation
Range (km)
Doppler Factor

Next 0 passes for location: London (51.5072 / 0.1276)

Sorry there are no passes over London.